GW5880 Weather Reports


time (UTC)temp
F
wind
direction
speed
knots
gust
knots
rain 1hr
in
rain 24hr
in
rain mn
in
humidity
%
barometer
mb
20260507101449 33 101 2.6 3.5 0.00 0.00 0.00 96 1011.8
20260507100946 33 90 2.6 2.6 0.00 0.00 0.00 96 1011.8
20260507100444 33 111 2.6 3.5 0.00 0.00 0.00 96 1011.7
20260507095942 33 113 2.6 3.5 0.00 0.00 0.00 96 1011.7
20260507095439 33 118 2.6 2.6 0.00 0.00 0.00 95 1011.7
20260507094936 33 123 2.6 3.5 0.00 0.00 0.00 96 1011.5
20260507094432 33 124 2.6 3.5 0.00 0.00 0.00 95 1011.4
20260507093929 34 120 2.6 2.6 0.00 0.00 0.00 95 1011.6
20260507093427 34 107 2.6 2.6 0.00 0.00 0.00 95 1011.5
20260507092925 34 97 1.7 1.7 0.00 0.00 0.00 95 1011.7
20260507092421 34 99 0.9 0.9 0.00 0.00 0.00 95 1011.8
20260507091918 35 118 0.9 1.7 0.00 0.00 0.00 94 1011.8
20260507091414 35 102 1.7 1.7 0.00 0.00 0.00 95 1011.6
20260507090910 35 99 1.7 2.6 0.00 0.00 0.00 95 1011.6
20260507090406 35 126 2.6 2.6 0.00 0.00 0.00 95 1011.7
20260507085903 34 110 2.6 2.6 0.00 0.00 0.00 95 1011.8
20260507085400 34 112 2.6 2.6 0.00 0.00 0.00 94 1011.6
20260507084858 35 117 2.6 2.6 0.00 0.00 0.00 94 1011.9
20260507084354 35 118 1.7 2.6 0.00 0.00 0.00 94 1012.0
20260507083851 35 125 0.9 1.7 0.00 0.00 0.00 94 1012.2
20260507083347 35 136 1.7 1.7 0.00 0.00 0.00 94 1011.9
20260507082844 35 133 1.7 1.7 0.00 0.00 0.00 93 1011.9
20260507082339 35 113 1.7 1.7 0.00 0.00 0.00 93 1011.9
20260507081837 35 113 1.7 1.7 0.00 0.00 0.00 93 1011.9
20260507081332 35 142 0.9 1.7 0.00 0.00 0.00 93 1012.0
20260507080830 36 140 1.7 1.7 0.00 0.00 0.00 92 1011.9
20260507080326 36 121 1.7 1.7 0.00 0.00 0.00 91 1011.8
20260507075821 36 116 1.7 1.7 0.00 0.00 0.00 91 1012.0
20260507075318 37 119 1.7 1.7 0.00 0.00 0.00 90 1011.8
20260507074814 37 122 0.9 0.9 0.00 0.00 0.00 90 1012.0
20260507074312 37 125 0.9 0.9 0.00 0.00 0.00 90 1012.0
20260507073809 37 101 0.9 0.9 0.00 0.00 0.00 89 1012.3
20260507073306 38 97 0.9 1.7 0.00 0.00 0.00 89 1012.0
20260507072803 38 101 0.0 0.9 0.00 0.00 0.00 89 1011.9
20260507072300 38 103 0.9 0.9 0.00 0.00 0.00 89 1012.0
20260507071757 38 102 0.9 0.9 0.00 0.00 0.00 89 1012.2
20260507071254 38 119 0.9 0.9 0.00 0.00 0.00 88 1012.0
20260507070751 38 135 0.9 0.9 0.00 0.00 0.00 88 1011.8
20260507070248 38 106 0.0 0.9 0.00 0.00 0.00 88 1011.9
20260507065744 39 321 0.9 0.9 0.00 0.00 0.00 88 1011.9
20260507065241 39 321 0.0 0.9 0.00 0.00 0.00 88 1011.9
20260507064738 39 321 0.0 0.0 0.00 0.00 0.00 87 1012.0
20260507064237 39 321 0.0 0.0 0.00 0.00 0.00 88 1011.9
20260507063734 39 321 0.0 0.0 0.00 0.00 0.00 87 1011.8
20260507063231 39 321 0.0 0.0 0.00 0.00 0.00 87 1012.0
20260507062728 39 321 0.0 0.0 0.00 0.00 0.00 86 1012.2
20260507062225 40 321 0.0 0.0 0.00 0.00 0.00 86 1012.2
20260507061723 40 321 0.0 1.7 0.00 0.00 0.00 85 1012.4
20260507061221 40 38 0.0 0.9 0.00 0.00 0.00 85 1012.2
20260507060719 40 40 0.0 0.0 0.00 0.00 0.00 85 1012.0
20260507060215 40 40 0.0 0.9 0.00 0.00 0.00 85 1012.2
20260507055711 40 44 0.0 0.0 0.00 0.00 0.00 85 1012.2
20260507055207 40 295 0.0 0.9 0.00 0.00 0.00 84 1012.2
20260507054703 40 295 0.9 0.9 0.00 0.00 0.00 85 1012.4
20260507054200 40 316 0.0 1.7 0.00 0.00 0.00 85 1012.4
20260507053658 40 308 0.0 0.0 0.00 0.00 0.00 86 1012.2
20260507053156 40 346 0.0 1.7 0.00 0.00 0.00 85 1012.4
20260507052654 40 326 0.9 1.7 0.00 0.00 0.00 84 1012.5
20260507052150 40 323 1.7 2.6 0.00 0.00 0.00 82 1012.3
20260507051647 40 339 1.7 5.2 0.00 0.00 0.00 83 1012.2
20260507051144 41 353 0.9 2.6 0.00 0.00 0.00 83 1012.3
20260507050641 41 311 7.0 9.6 0.00 0.00 0.00 84 1012.4
20260507050138 41 308 1.7 3.5 0.00 0.00 0.00 84 1012.3
20260507045635 41 318 0.9 2.6 0.00 0.00 0.00 86 1012.4
20260507045131 41 326 2.6 5.2 0.00 0.00 0.00 86 1012.3
20260507044628 41 306 1.7 3.5 0.00 0.00 0.00 88 1012.4
20260507044125 41 306 0.9 5.2 0.00 0.00 0.00 88 1012.5
20260507043621 42 332 0.9 5.2 0.00 0.00 0.00 89 1012.5
20260507043118 41 341 0.0 2.6 0.00 0.00 0.00 89 1012.4
20260507042614 42 24 0.9 5.2 0.00 0.00 0.00 90 1012.4
20260507042110 42 312 1.7 1.7 0.00 0.00 0.00 91 1012.3
20260507041607 42 328 0.9 1.7 0.00 0.00 0.00 91 1012.4
20260507041103 42 300 0.9 1.7 0.00 0.00 0.00 91 1012.3
20260507040600 42 310 1.7 2.6 0.00 0.00 0.00 90 1012.4
20260507040057 43 277 0.9 2.6 0.00 0.76 0.76 90 1012.0
20260507035553 43 346 0.9 6.1 0.00 0.76 0.76 90 1011.9
20260507035049 43 329 1.7 5.2 0.00 0.76 0.76 89 1011.6
20260507034546 43 324 2.6 6.1 0.00 0.76 0.76 89 1011.4
20260507034044 43 288 3.5 5.2 0.00 0.76 0.76 89 1011.5
20260507033542 43 275 0.9 7.0 0.00 0.76 0.76 89 1011.5
20260507033038 43 221 1.7 5.2 0.00 0.76 0.76 90 1011.5
20260507032535 43 308 3.5 5.2 0.00 0.76 0.76 91 1011.5
20260507032032 44 314 0.9 1.7 0.00 0.76 0.76 92 1011.7
20260507031528 44 318 1.7 2.6 0.00 0.76 0.76 92 1011.6
20260507031025 44 326 0.0 0.0 0.00 0.76 0.76 93 1011.6
20260507030522 44 318 0.9 1.7 0.00 0.76 0.76 93 1011.5
20260507030020 44 295 2.6 3.5 0.00 0.76 0.76 93 1011.4
20260507025516 44 309 2.6 3.5 0.00 0.76 0.76 93 1011.7
20260507025014 44 282 2.6 7.0 0.00 0.76 0.76 93 1011.8
20260507024512 44 308 2.6 3.5 0.00 0.76 0.76 94 1011.5
20260507024008 44 307 3.5 5.2 0.00 0.76 0.76 95 1011.6
20260507023504 44 288 1.7 5.2 0.00 0.76 0.76 95 1011.4
20260507023002 44 308 1.7 3.5 0.00 0.76 0.76 95 1011.3
20260507022458 44 291 3.5 3.5 0.00 0.76 0.76 95 1011.5
20260507021954 44 290 2.6 3.5 0.00 0.76 0.76 95 1011.4
20260507021449 45 304 2.6 5.2 0.00 0.76 0.76 95 1011.6
20260507020947 44 299 4.3 7.8 0.00 0.76 0.76 96 1011.5
20260507020444 45 291 1.7 1.7 0.00 0.76 0.76 96 1011.6
20260507015941 45 302 1.7 2.6 0.00 0.76 0.76 96 1011.5
20260507015439 45 286 0.0 0.0 0.00 0.76 0.76 96 1011.5
20260507014936 45 287 0.0 1.7 0.00 0.76 0.76 96 1011.8
20260507014433 45 238 1.7 1.7 0.00 0.76 0.76 95 1011.8
20260507013929 45 265 0.0 0.0 0.05 0.76 0.76 95 1011.5
20260507013426 45 265 0.0 1.7 0.05 0.76 0.76 95 1011.7
20260507012923 45 240 0.9 0.9 0.00 0.75 0.75 95 1011.5
20260507012420 45 234 0.0 1.7 0.00 0.75 0.75 94 1011.7
20260507011917 45 222 3.5 3.5 0.00 0.75 0.75 94 1011.4
20260507011414 45 234 1.7 1.7 0.00 0.75 0.75 94 1011.5
20260507010913 45 226 1.7 2.6 0.00 0.75 0.75 94 1011.4
20260507010409 45 162 0.0 0.0 0.00 0.75 0.75 94 1011.1
20260507005906 45 162 0.0 0.0 0.00 0.75 0.75 94 1011.3
20260507005403 45 167 0.0 0.9 0.00 0.75 0.75 93 1011.1
20260507004900 45 167 0.9 0.9 0.00 0.75 0.75 93 1011.2
20260507004357 45 167 0.0 1.7 0.00 0.75 0.75 93 1011.1
20260507003854 45 167 0.0 0.9 0.00 0.75 0.75 93 1011.1
20260507003349 45 151 0.0 0.0 0.00 0.75 0.75 92 1010.9
20260507002844 45 151 0.9 1.7 0.00 0.75 0.75 92 1011.0
20260507002341 45 196 0.9 0.9 0.00 0.75 0.75 92 1010.8
20260507001838 45 197 0.0 0.0 0.00 0.75 0.75 92 1010.8
20260507001335 45 197 0.0 0.0 0.00 0.75 0.75 92 1010.8
20260507000831 45 197 0.0 0.0 0.00 0.75 0.75 92 1010.7
20260507000328 45 197 0.0 0.0 0.00 0.75 0.75 92 1010.6
20260506235824 45 197 0.0 0.0 0.00 0.75 0.75 91 1010.6
20260506235320 45 197 0.0 0.9 0.00 0.75 0.75 91 1010.7
20260506234816 45 197 0.9 0.9 0.00 0.75 0.75 91 1010.6
20260506234314 45 197 0.9 1.7 0.00 0.75 0.75 90 1010.4
20260506233812 46 293 0.0 0.0 0.00 0.75 0.75 89 1010.6
20260506233307 46 293 0.0 0.9 0.00 0.75 0.75 88 1010.3
20260506232804 46 292 0.0 0.0 0.00 0.75 0.75 88 1010.6
20260506232300 46 292 0.0 0.0 0.00 0.75 0.75 88 1010.6
20260506231757 46 292 0.0 0.0 0.00 0.75 0.75 88 1010.7
20260506231255 46 292 0.0 0.0 0.00 0.75 0.75 89 1010.5
20260506230752 46 292 0.0 0.9 0.00 0.75 0.75 89 1010.6
20260506230249 46 260 0.0 0.0 0.00 0.75 0.75 89 1010.3
20260506225745 46 246 0.9 2.6 0.00 0.75 0.75 89 1010.2
20260506225242 46 96 0.0 0.9 0.00 0.75 0.75 89 1010.1
20260506224738 46 133 0.9 0.9 0.00 0.75 0.75 89 1010.1
20260506224236 46 109 0.9 0.9 0.00 0.75 0.75 89 1010.1
20260506223732 46 283 0.0 0.0 0.00 0.75 0.75 90 1010.2
20260506223227 46 307 0.0 0.9 0.00 0.75 0.75 90 1010.2
20260506222725 46 298 0.0 0.0 0.00 0.75 0.75 90 1010.2
20260506222220 46 298 0.0 0.9 0.00 0.75 0.75 90 1009.9
20260506221719 46 327 0.0 0.0 0.00 0.75 0.75 91 1010.0
20260506221216 46 291 0.0 0.9 0.00 0.75 0.75 91 1009.9
20260506220714 46 315 0.0 0.9 0.00 0.75 0.75 91 1010.0
20260506220208 46 278 0.0 1.7 0.00 0.75 0.75 91 1009.7
20260506215705 46 314 0.0 0.9 0.00 0.75 0.75 91 1010.1
20260506215200 46 304 0.0 1.7 0.00 0.75 0.75 91 1010.0
20260506214657 46 291 0.9 2.6 0.00 0.75 0.75 91 1010.3
20260506214155 46 293 0.9 0.9 0.00 0.75 0.75 92 1010.2
20260506213653 46 257 0.0 2.6 0.00 0.75 0.75 91 1010.2
20260506213150 46 283 1.7 2.6 0.00 0.75 0.75 92 1009.7
20260506212647 46 317 1.7 1.7 0.00 0.75 0.75 93 1010.1
20260506212142 45 289 3.5 3.5 0.00 0.75 0.75 93 1010.2
20260506211638 45 309 0.0 1.7 0.00 0.75 0.75 94 1010.0
20260506211135 45 311 0.9 1.7 0.00 0.75 0.75 94 1010.0
20260506210632 45 329 1.7 1.7 0.00 0.75 0.75 94 1010.0
20260506210129 45 338 1.7 1.7 0.00 0.75 0.75 95 1010.1
20260506205626 45 330 0.0 2.6 0.00 0.75 0.75 94 1010.0
20260506205126 45 263 0.9 3.5 0.00 0.75 0.75 94 1009.9
20260506204624 45 325 3.5 6.1 0.00 0.75 0.75 93 1009.9
20260506204121 46 310 1.7 3.5 0.00 0.75 0.75 93 1010.0
20260506203619 46 313 0.0 2.6 0.00 0.75 0.75 93 1009.6
20260506203115 46 301 1.7 5.2 0.00 0.75 0.75 93 1009.5
20260506202613 46 308 3.5 5.2 0.00 0.75 0.75 93 1009.5
20260506202109 46 157 0.0 1.7 0.00 0.75 0.75 94 1009.5
20260506201607 46 302 2.6 3.5 0.00 0.75 0.75 94 1009.4
20260506201103 46 334 1.7 2.6 0.00 0.75 0.75 95 1009.2
20260506200559 45 309 0.9 5.2 0.00 0.75 0.75 94 1009.3
20260506200056 45 350 0.9 3.5 0.00 0.75 0.75 95 1009.4
20260506195553 45 339 4.3 5.2 0.00 0.75 0.75 95 1009.4
20260506195049 45 332 0.9 1.7 0.00 0.75 0.75 95 1009.3
20260506194547 46 343 1.7 2.6 0.00 0.75 0.75 96 1009.4
20260506194043 45 323 2.6 5.2 0.00 0.75 0.75 96 1009.4
20260506193541 45 327 2.6 5.2 0.00 0.75 0.75 96 1009.3
20260506193038 45 320 3.5 7.0 0.00 0.75 0.75 96 1009.1
20260506192535 45 349 1.7 3.5 0.00 0.75 0.75 96 1009.0
20260506192031 45 298 3.5 5.2 0.00 0.75 0.75 96 1009.2
20260506191527 45 341 1.7 3.5 0.00 0.75 0.75 97 1009.2
20260506191024 45 271 1.7 2.6 0.00 0.75 0.75 97 1009.1
20260506190521 45 314 1.7 2.6 0.00 0.75 0.75 97 1009.1
20260506190019 45 333 0.9 3.5 0.00 0.75 0.75 97 1008.8
20260506185515 44 272 2.6 3.5 0.00 0.75 0.75 98 1008.9
20260506185011 44 309 1.7 6.1 0.00 0.75 0.75 98 1008.8
20260506184509 44 317 2.6 3.5 0.00 0.75 0.75 98 1008.6
20260506184006 44 302 1.7 6.1 0.00 0.75 0.75 97 1008.9
20260506183501 44 303 1.7 5.2 0.00 0.75 0.75 98 1008.9
20260506182959 45 291 3.5 6.1 0.00 0.75 0.75 98 1009.0
20260506182455 45 348 0.9 2.6 0.00 0.75 0.75 98 1008.9
20260506181953 45 327 1.7 5.2 0.00 0.75 0.75 98 1008.8
20260506181451 44 353 2.6 3.5 0.00 0.75 0.75 98 1008.9
20260506180947 44 309 2.6 3.5 0.00 0.75 0.75 98 1008.8
20260506180444 45 307 1.7 3.5 0.00 0.75 0.75 98 1009.0
20260506175941 45 302 0.9 2.6 0.00 0.75 0.75 98 1008.6
20260506175437 45 336 0.9 2.6 0.00 0.75 0.75 98 1008.5
20260506174934 45 353 0.0 2.6 0.00 0.75 0.75 98 1008.6
20260506174432 45 306 1.7 1.7 0.00 0.75 0.75 98 1008.3
20260506173928 44 302 0.0 0.9 0.00 0.75 0.75 98 1008.3
20260506173426 45 317 0.9 3.5 0.00 0.75 0.75 98 1008.1
20260506172923 45 305 0.0 0.0 0.00 0.75 0.75 99 1008.1
20260506172420 44 318 0.9 2.6 0.00 0.75 0.75 98 1008.3
20260506171916 44 51 0.0 3.5 0.00 0.75 0.75 98 1008.0
20260506171414 44 345 1.7 1.7 0.00 0.75 0.75 98 1008.1
20260506170912 44 35 0.9 1.7 0.00 0.75 0.75 99 1008.1
20260506170408 44 344 0.9 5.2 0.00 0.75 0.75 98 1008.0
20260506165907 45 59 0.9 5.2 0.00 0.75 0.75 98 1008.0
20260506165405 44 359 0.0 0.9 0.00 0.75 0.75 99 1008.1
20260506164900 44 26 0.0 0.9 0.00 0.75 0.75 99 1008.0
20260506164357 44 306 0.9 2.6 0.00 0.75 0.75 99 1008.0
20260506163856 44 352 0.0 1.7 0.00 0.75 0.75 99 1008.0
20260506163355 44 123 0.9 1.7 0.07 0.75 0.75 99 1008.1
20260506162850 44 284 0.0 1.7 0.07 0.75 0.75 99 1007.9
20260506162349 44 65 0.9 2.6 0.00 0.74 0.74 99 1008.0
20260506161846 44 322 0.0 1.7 0.05 0.74 0.74 99 1007.9
20260506161343 44 34 0.0 6.1 0.05 0.74 0.74 99 1007.9
20260506160841 44 248 0.0 1.7 0.07 0.73 0.73 99 1007.9
20260506160337 44 277 0.0 1.7 0.07 0.73 0.73 99 1008.2
20260506155836 43 23 3.5 5.2 0.07 0.72 0.72 99 1008.1
20260506155332 44 327 0.9 2.6 0.07 0.72 0.72 99 1008.1
20260506153444 43 18 0.9 2.6 0.07 0.70 0.70 99 1007.8
20260506152942 43 81 0.9 1.7 0.07 0.70 0.70 99 1007.8
20260506152438 43 324 0.9 1.7 0.05 0.69 0.69 99 1007.9
20260506151937 43 40 0.0 2.6 0.05 0.69 0.69 99 1007.8
20260506151434 42 288 0.0 0.9 0.00 0.68 0.68 99 1007.8
20260506150931 43 266 0.9 3.5 0.07 0.68 0.68 99 1007.8
20260506150427 42 332 0.0 0.9 0.12 0.68 0.68 99 1007.8
20260506145925 42 310 1.7 1.7 0.05 0.67 0.67 99 1007.8
20260506145421 42 321 0.0 0.9 0.00 0.66 0.66 99 1008.0
20260506144918 42 337 0.0 0.0 0.00 0.66 0.66 99 1007.9
20260506144414 42 317 0.9 2.6 0.00 0.66 0.66 99 1007.5
20260506143913 42 61 0.9 1.7 0.07 0.66 0.66 99 1007.4
20260506143410 42 61 0.9 1.7 0.07 0.66 0.66 99 1007.4
20260506142908 42 86 0.9 2.6 0.07 0.66 0.66 99 1007.4
20260506142406 42 337 1.7 3.5 0.00 0.65 0.65 99 1007.5
20260506141904 42 329 1.7 5.2 0.12 0.65 0.65 99 1007.2
20260506141401 42 334 1.7 3.5 0.12 0.64 0.64 99 1007.2
20260506140859 42 333 0.9 1.7 0.05 0.63 0.63 99 1007.3
20260506140356 42 87 0.0 0.9 0.07 0.62 0.62 99 1007.5
20260506135853 42 339 1.7 3.5 0.07 0.62 0.62 99 1007.4
20260506135350 42 91 0.0 1.7 0.00 0.61 0.61 99 1007.5
20260506134846 42 40 1.7 2.6 0.05 0.61 0.61 99 1007.5
20260506134342 42 30 0.0 6.1 0.05 0.61 0.61 99 1007.3
20260506133840 42 252 0.9 1.7 0.00 0.60 0.60 99 1007.4
20260506133336 41 43 0.0 0.9 0.07 0.60 0.60 99 1007.4
20260506132833 42 58 0.0 2.6 0.07 0.60 0.60 99 1007.5
20260506132330 41 10 0.0 0.9 0.07 0.59 0.59 99 1007.4
20260506131828 41 304 1.7 5.2 0.07 0.59 0.59 99 1007.8
20260506131324 41 56 0.0 1.7 0.05 0.58 0.58 99 1007.7
20260506130822 41 65 1.7 3.5 0.12 0.58 0.58 99 1007.5
20260506130318 41 98 0.9 1.7 0.07 0.57 0.57 99 1007.5
20260506125816 42 51 0.9 0.9 0.05 0.56 0.56 99 1007.9
20260506125314 42 318 0.0 0.9 0.12 0.56 0.56 99 1007.9
20260506124812 42 285 0.9 2.6 0.12 0.55 0.55 99 1007.9
20260506124309 42 343 0.9 1.7 0.12 0.54 0.54 99 1007.5
20260506123806 42 320 1.7 5.2 0.12 0.53 0.53 99 1007.3
20260506123305 42 357 1.7 5.2 0.12 0.52 0.52 99 1007.8
20260506122801 42 39 1.7 3.5 0.12 0.51 0.51 99 1007.2
20260506122258 42 329 0.9 2.6 0.12 0.50 0.50 99 1007.7
20260506121757 42 359 1.7 2.6 0.12 0.49 0.49 99 1007.7
20260506121253 42 334 0.0 1.7 0.12 0.48 0.48 99 1007.5
20260506120751 42 86 1.7 1.7 0.14 0.47 0.47 99 1007.4
20260506120248 42 276 0.9 7.0 0.07 0.46 0.46 99 1007.2
20260506115746 42 97 1.7 1.7 0.05 0.45 0.45 99 1007.1
20260506115244 42 61 1.7 5.2 0.17 0.45 0.45 99 1007.1
20260506114741 42 54 3.5 3.5 0.19 0.44 0.44 99 1007.4
20260506114239 42 303 0.0 2.6 0.12 0.42 0.42 99 1007.0
20260506113737 42 356 3.5 6.1 0.12 0.41 0.41 99 1007.3
20260506113234 42 233 0.9 1.7 0.12 0.40 0.40 98 1007.0
20260506112730 43 26 0.9 7.0 0.12 0.39 0.39 98 1006.7
20260506112228 43 70 4.3 8.7 0.12 0.38 0.38 98 1007.2
20260506111725 44 38 0.0 3.5 0.05 0.37 0.37 98 1006.9
20260506111224 44 332 1.7 2.6 0.07 0.36 0.36 98 1006.8
20260506110721 44 36 0.0 0.9 0.05 0.35 0.35 99 1006.7
20260506110218 44 331 3.5 3.5 0.19 0.35 0.35 99 1006.8
20260506105714 44 37 0.9 2.6 0.19 0.34 0.34 99 1006.7
20260506105211 44 146 1.7 2.6 0.12 0.32 0.32 98 1006.6
20260506104709 44 351 1.7 3.5 0.19 0.31 0.31 98 1007.0
20260506104207 45 45 1.7 5.2 0.17 0.30 0.30 98 1006.8
20260506103703 45 54 1.7 2.6 0.17 0.28 0.28 98 1007.0
20260506103200 45 47 0.9 1.7 0.24 0.27 0.27 98 1006.9
20260506102658 45 329 3.5 3.5 0.26 0.25 0.25 98 1006.8
20260506102156 45 305 0.0 2.6 0.26 0.23 0.23 98 1007.0
20260506101652 45 38 0.0 0.9 0.12 0.19 0.19 98 1006.8